This is the latest recevied weather packets stored in our database for station/object K2MRS. If no packets are shown the sender has not sent any weather packets the latest 1 day(s).
| Time | Temp. | Humidity | Pressure | Rain* | Wind** | Luminosity | Snow |
|---|---|---|---|---|---|---|---|
| 1777990885 | 11.11° C | 94% | 1015.2 hPa | 0 mm | 0 m/s | 16 W/m² | - |
| 1777990585 | 11.11° C | 94% | 1015.2 hPa | 0 mm | 0 m/s | 18 W/m² | - |
| 1777990285 | 11.11° C | 94% | 1015.1 hPa | 0 mm | 0 m/s | 19 W/m² | - |
| 1777989981 | 11.11° C | 94% | 1015.1 hPa | 0 mm | 0 m/s | 19 W/m² | - |
| 1777989679 | 11.11° C | 94% | 1015.3 hPa | 0 mm | 0 m/s | 23 W/m² | - |
| 1777989375 | 11.11° C | 94% | 1015.2 hPa | 0 mm | 0 m/s | 21 W/m² | - |
| 1777989075 | 11.11° C | 94% | 1015.3 hPa | 0 mm | 0 m/s | 12 W/m² | - |
| 1777988773 | 11.11° C | 94% | 1015.2 hPa | 0 mm | 0 m/s | 7 W/m² | - |
| 1777988473 | 11.11° C | 94% | 1015.2 hPa | 0 mm | 0 m/s | 5 W/m² | - |
| 1777988171 | 11.11° C | 94% | 1015.2 hPa | 0 mm | 0 m/s | 5 W/m² | - |
| 1777987869 | 10.56° C | 94% | 1015.1 hPa | 0 mm | 0 m/s | 0 W/m² | - |
| 1777987566 | 10.56° C | 94% | 1015 hPa | 0 mm | 0 m/s | 0 W/m² | - |
| 1777987267 | 10.56° C | 94% | 1014.9 hPa | 0 mm | 0 m/s | 0 W/m² | - |
| 1777986966 | 10.56° C | 94% | 1014.8 hPa | 0 mm | 0 m/s | 0 W/m² | - |
| 1777986667 | 10.56° C | 94% | 1014.9 hPa | 0 mm | 0 m/s | 0 W/m² | - |
| 1777986366 | 10.56° C | 94% | 1015 hPa | 0 mm | 0 m/s | 0 W/m² | - |
| 1777986067 | 10.56° C | 94% | 1014.9 hPa | 0 mm | 0 m/s | 0 W/m² | - |
| 1777985895 | 10.56° C | 93% | 1014.8 hPa | 0 mm | 0 m/s | 0 W/m² | - |
| 1777985464 | 10.56° C | 93% | 1014.8 hPa | 0 mm | 0 m/s | 0 W/m² | - |
| 1777985164 | 10.56° C | 93% | 1014.8 hPa | 0 mm | 0 m/s | 0 W/m² | - |
| 1777984860 | 10.56° C | 93% | 1014.9 hPa | 0 mm | 0 m/s | 0 W/m² | - |
| 1777984558 | 10.56° C | 93% | 1014.8 hPa | 0 mm | 0 m/s | 0 W/m² | - |
| 1777984257 | 10.56° C | 93% | 1014.9 hPa | 0 mm | 0 m/s | 0 W/m² | - |
| 1777983956 | 10.56° C | 93% | 1015.1 hPa | 0 mm | 0 m/s | 0 W/m² | - |
| 1777983657 | 10.56° C | 93% | 1015 hPa | 0 mm | 0 m/s | 0 W/m² | - |
* Rain latest hour (hover to see other rain measurements)
** Current wind speed in m/s (hover to see current wind gust speed)